| time (UTC) | temp F | wind direction | speed MPH | gust MPH | rain 1hr in | rain 24hr in | rain mn in | humidity % | barometer mb |
| 20260905190045 | 79 | 232 | 9.0 | 16.0 | 0.00 | 0.00 | 0.00 | 29 | 1027.4 |
| 20260905184536 | 79 | 240 | 11.0 | 17.0 | 0.00 | 0.00 | 0.00 | 30 | 1027.6 |
| 20260905183038 | 78 | 227 | 7.0 | 16.0 | 0.00 | 0.00 | 0.00 | 30 | 1027.6 |
| 20260905181535 | 78 | 199 | 10.0 | 16.0 | 0.00 | 0.00 | 0.00 | 30 | 1027.9 |
| 20260905180115 | 78 | 206 | 9.0 | 17.0 | 0.00 | 0.00 | 0.00 | 32 | 1028.0 |
| 20260905174534 | 77 | 135 | 5.0 | 16.0 | 0.00 | 0.00 | 0.00 | 32 | 1028.0 |
| 20260905173043 | 76 | 221 | 7.0 | 12.0 | 0.00 | 0.00 | 0.00 | 32 | 1028.3 |
| 20260905171548 | 76 | 223 | 6.0 | 11.0 | 0.00 | 0.00 | 0.00 | 33 | 1028.4 |
| 20260905170038 | 75 | 231 | 3.0 | 6.0 | 0.00 | 0.00 | 0.00 | 36 | 1028.4 |
| 20260905164536 | 75 | 157 | 2.0 | 5.0 | 0.00 | 0.00 | 0.00 | 37 | 1028.5 |
| 20260905163037 | 71 | 215 | 2.0 | 4.0 | 0.00 | 0.00 | 0.00 | 40 | 1028.6 |
| 20260905161536 | 68 | 233 | 1.0 | 4.0 | 0.00 | 0.00 | 0.00 | 44 | 1028.6 |
| 20260905160050 | 66 | 210 | 2.0 | 4.0 | 0.00 | 0.00 | 0.00 | 45 | 1028.5 |
| 20260905154540 | 66 | 190 | 2.0 | 6.0 | 0.00 | 0.00 | 0.00 | 45 | 1028.6 |
| 20260905153036 | 65 | 227 | 4.0 | 7.0 | 0.00 | 0.00 | 0.00 | 47 | 1028.7 |
| 20260905151538 | 66 | 218 | 4.0 | 7.0 | 0.00 | 0.00 | 0.00 | 47 | 1028.5 |
| 20260905150038 | 67 | 246 | 4.0 | 6.0 | 0.00 | 0.00 | 0.00 | 45 | 1028.5 |
| 20260905144538 | 66 | 355 | 1.0 | 4.0 | 0.00 | 0.00 | 0.00 | 46 | 1028.5 |
| 20260905143034 | 63 | 31 | 2.0 | 4.0 | 0.00 | 0.00 | 0.00 | 49 | 1028.7 |
| 20260905141535 | 60 | 28 | 2.0 | 5.0 | 0.00 | 0.00 | 0.00 | 52 | 1028.8 |
| 20260905140037 | 58 | 186 | 1.0 | 6.0 | 0.00 | 0.00 | 0.00 | 55 | 1029.0 |
| 20260905134534 | 55 | 17 | 2.0 | 4.0 | 0.00 | 0.00 | 0.00 | 60 | 1028.6 |
| 20260905133034 | 52 | 25 | 3.0 | 6.0 | 0.00 | 0.00 | 0.00 | 62 | 1028.5 |
| 20260905131534 | 51 | 37 | 2.0 | 4.0 | 0.00 | 0.00 | 0.00 | 63 | 1028.2 |
| 20260905130034 | 51 | 28 | 1.0 | 4.0 | 0.00 | 0.00 | 0.00 | 63 | 1028.1 |
| 20260905124536 | 51 | 34 | 1.0 | 4.0 | 0.00 | 0.00 | 0.00 | 64 | 1027.9 |
| 20260905123034 | 51 | 52 | 2.0 | 3.0 | 0.00 | 0.00 | 0.00 | 62 | 1027.9 |
| 20260905121540 | 51 | 86 | 1.0 | 3.0 | 0.00 | 0.00 | 0.00 | 61 | 1027.7 |
| 20260905120052 | 52 | 58 | 0.0 | 3.0 | 0.00 | 0.00 | 0.00 | 60 | 1027.6 |
| 20260905114537 | 52 | 58 | 2.0 | 5.0 | 0.00 | 0.00 | 0.00 | 60 | 1027.5 |
| 20260905113050 | 53 | 61 | 3.0 | 4.0 | 0.00 | 0.00 | 0.00 | 59 | 1027.6 |
| 20260905111615 | 53 | 71 | 2.0 | 5.0 | 0.00 | 0.00 | 0.00 | 58 | 1027.5 |
| 20260905110035 | 54 | 66 | 2.0 | 5.0 | 0.00 | 0.00 | 0.00 | 56 | 1027.4 |
| 20260905104533 | 54 | 69 | 2.0 | 5.0 | 0.00 | 0.00 | 0.00 | 55 | 1027.4 |
| 20260905103038 | 55 | 70 | 3.0 | 4.0 | 0.00 | 0.00 | 0.00 | 54 | 1027.3 |
| 20260905101535 | 56 | 75 | 1.0 | 3.0 | 0.00 | 0.00 | 0.00 | 53 | 1027.3 |
| 20260905100038 | 56 | 75 | 1.0 | 3.0 | 0.00 | 0.00 | 0.00 | 52 | 1027.2 |
| 20260905094535 | 56 | 69 | 4.0 | 6.0 | 0.00 | 0.00 | 0.00 | 53 | 1027.3 |
| 20260905093041 | 56 | 76 | 2.0 | 4.0 | 0.00 | 0.00 | 0.00 | 53 | 1027.2 |
| 20260905091537 | 55 | 76 | 3.0 | 6.0 | 0.00 | 0.00 | 0.00 | 53 | 1027.2 |
| 20260905090038 | 55 | 74 | 4.0 | 8.0 | 0.00 | 0.00 | 0.00 | 52 | 1027.0 |
| 20260905084538 | 55 | 71 | 4.0 | 6.0 | 0.00 | 0.00 | 0.00 | 51 | 1026.9 |
| 20260905083037 | 55 | 59 | 4.0 | 7.0 | 0.00 | 0.00 | 0.00 | 52 | 1026.7 |
| 20260905081535 | 55 | 82 | 2.0 | 4.0 | 0.00 | 0.00 | 0.00 | 52 | 1026.7 |
| 20260905080036 | 55 | 61 | 3.0 | 6.0 | 0.00 | 0.00 | 0.00 | 51 | 1026.6 |
| 20260905074534 | 56 | 72 | 3.0 | 7.0 | 0.00 | 0.00 | 0.00 | 51 | 1026.5 |
| 20260905073038 | 56 | 62 | 5.0 | 8.0 | 0.00 | 0.00 | 0.00 | 50 | 1026.5 |
| 20260905071538 | 57 | 81 | 5.0 | 7.0 | 0.00 | 0.00 | 0.00 | 50 | 1026.5 |
| 20260905070048 | 57 | 76 | 4.0 | 7.0 | 0.00 | 0.00 | 0.00 | 50 | 1026.4 |
| 20260905064546 | 58 | 71 | 4.0 | 5.0 | 0.00 | 0.00 | 0.00 | 49 | 1026.3 |
| 20260905063034 | 58 | 71 | 3.0 | 5.0 | 0.00 | 0.00 | 0.00 | 48 | 1026.1 |
| 20260905061532 | 59 | 93 | 3.0 | 7.0 | 0.00 | 0.00 | 0.00 | 48 | 1026.2 |
| 20260905060036 | 59 | 82 | 2.0 | 5.0 | 0.00 | 0.00 | 0.00 | 48 | 1026.0 |
| 20260905054546 | 60 | 80 | 3.0 | 7.0 | 0.00 | 0.00 | 0.00 | 48 | 1026.0 |
| 20260905053037 | 60 | 75 | 5.0 | 8.0 | 0.00 | 0.00 | 0.00 | 48 | 1026.1 |
| 20260905051544 | 60 | 82 | 4.0 | 8.0 | 0.00 | 0.00 | 0.00 | 48 | 1025.9 |
| 20260905050035 | 60 | 74 | 5.0 | 9.0 | 0.00 | 0.00 | 0.00 | 49 | 1025.9 |
| 20260905044537 | 61 | 74 | 4.0 | 7.0 | 0.00 | 0.00 | 0.00 | 47 | 1026.0 |
| 20260905043036 | 61 | 82 | 4.0 | 7.0 | 0.00 | 0.00 | 0.00 | 48 | 1025.9 |
| 20260905041537 | 60 | 63 | 5.0 | 8.0 | 0.00 | 0.00 | 0.00 | 49 | 1025.9 |
| 20260905040036 | 61 | 63 | 5.0 | 9.0 | 0.00 | 0.00 | 0.00 | 49 | 1025.8 |
| 20260905034538 | 62 | 79 | 4.0 | 7.0 | 0.00 | 0.00 | 0.00 | 47 | 1025.7 |
| 20260905033037 | 64 | 74 | 2.0 | 4.0 | 0.00 | 0.00 | 0.00 | 45 | 1025.7 |
| 20260905031538 | 64 | 0 | 0.0 | 3.0 | 0.00 | 0.00 | 0.00 | 43 | 1025.5 |
| 20260905030035 | 65 | 0 | 0.0 | 3.0 | 0.00 | 0.00 | 0.00 | 42 | 1025.4 |
| 20260905024535 | 67 | 0 | 0.0 | 4.0 | 0.00 | 0.00 | 0.00 | 40 | 1025.1 |
| 20260905023037 | 68 | 213 | 3.0 | 9.0 | 0.00 | 0.00 | 0.00 | 39 | 1024.7 |
| 20260905021540 | 69 | 213 | 6.0 | 11.0 | 0.00 | 0.00 | 0.00 | 38 | 1024.4 |
| 20260905020038 | 70 | 205 | 8.0 | 13.0 | 0.00 | 0.00 | 0.00 | 38 | 1024.2 |
| 20260905014550 | 72 | 208 | 6.0 | 10.0 | 0.00 | 0.00 | 0.00 | 35 | 1024.2 |
| 20260905013036 | 75 | 219 | 5.0 | 10.0 | 0.00 | 0.00 | 0.00 | 33 | 1024.1 |
| 20260905011538 | 77 | 232 | 5.0 | 11.0 | 0.00 | 0.00 | 0.00 | 32 | 1023.9 |
| 20260905010037 | 78 | 223 | 6.0 | 15.0 | 0.00 | 0.00 | 0.00 | 32 | 1023.8 |
| 20260905004537 | 78 | 225 | 10.0 | 15.0 | 0.00 | 0.00 | 0.00 | 31 | 1023.8 |
| 20260905003037 | 79 | 230 | 13.0 | 20.0 | 0.00 | 0.00 | 0.00 | 30 | 1023.7 |
| 20260905001536 | 80 | 210 | 13.0 | 19.0 | 0.00 | 0.00 | 0.00 | 29 | 1023.8 |
| 20260905000038 | 81 | 205 | 12.0 | 19.0 | 0.00 | 0.00 | 0.00 | 28 | 1023.8 |
| 20260904234536 | 82 | 239 | 10.0 | 15.0 | 0.00 | 0.00 | 0.00 | 27 | 1023.7 |
| 20260904233035 | 82 | 201 | 12.0 | 19.0 | 0.00 | 0.00 | 0.00 | 26 | 1023.8 |
| 20260904231539 | 82 | 209 | 11.0 | 20.0 | 0.00 | 0.00 | 0.00 | 27 | 1023.9 |
| 20260904230036 | 82 | 226 | 10.0 | 21.0 | 0.00 | 0.00 | 0.00 | 27 | 1024.0 |
| 20260904224534 | 81 | 219 | 10.0 | 21.0 | 0.00 | 0.00 | 0.00 | 29 | 1024.1 |
| 20260904223043 | 79 | 202 | 9.0 | 23.0 | 0.00 | 0.00 | 0.00 | 28 | 1024.1 |
| 20260904221546 | 82 | 202 | 9.0 | 22.0 | 0.00 | 0.00 | 0.00 | 28 | 1024.2 |
| 20260904220045 | 81 | 149 | 10.0 | 21.0 | 0.00 | 0.00 | 0.00 | 30 | 1024.3 |
| 20260904214540 | 82 | 223 | 12.0 | 22.0 | 0.00 | 0.00 | 0.00 | 29 | 1024.4 |
| 20260904213037 | 81 | 212 | 12.0 | 20.0 | 0.00 | 0.00 | 0.00 | 29 | 1024.6 |
| 20260904211550 | 82 | 180 | 14.0 | 23.0 | 0.00 | 0.00 | 0.00 | 27 | 1024.9 |
| 20260904210045 | 82 | 184 | 14.0 | 22.0 | 0.00 | 0.00 | 0.00 | 29 | 1025.0 |
| 20260904204537 | 81 | 219 | 12.0 | 23.0 | 0.00 | 0.00 | 0.00 | 29 | 1025.1 |
| 20260904203035 | 80 | 178 | 13.0 | 24.0 | 0.00 | 0.00 | 0.00 | 30 | 1025.1 |
| 20260904201538 | 80 | 180 | 14.0 | 28.0 | 0.00 | 0.00 | 0.00 | 30 | 1025.3 |
| 20260904200045 | 80 | 150 | 17.0 | 26.0 | 0.00 | 0.00 | 0.00 | 31 | 1025.4 |
| 20260904194621 | 79 | 14.0 | 22.0 | 0.00 | 0.00 | 0.00 | 32 | 1025.5 | |
| 20260904193042 | 78 | 180 | 17.0 | 27.0 | 0.00 | 0.00 | 0.00 | 32 | 1025.6 |
| 20260904191534 | 0 | 0.0 | 0.0 | 0.00 | 0.00 | 0.00 | 1025.8 |